| time (UTC) | temp F | wind direction | speed knots | gust knots | rain 1hr in | rain 24hr in | rain mn in | humidity % | barometer mb |
| 20260503200636 | 35 | 0.0 | 0.0 | 0.00 | 0.00 | 0.00 | 968.2 | ||
| 20260503195633 | 35 | 0.0 | 0.0 | 0.00 | 0.00 | 0.00 | 968.3 | ||
| 20260503194746 | 35 | 0.0 | 0.0 | 0.00 | 0.00 | 0.00 | 968.3 | ||
| 20260503194631 | 35 | 0.0 | 0.0 | 0.00 | 0.00 | 0.00 | 968.1 | ||
| 20260503194308 | 34 | 0.0 | 0.0 | 0.00 | 0.00 | 0.00 | 968.3 | ||
| 20260503193305 | 34 | 0.0 | 0.0 | 0.00 | 0.00 | 0.00 | 968.3 | ||
| 20260503192301 | 34 | 0.0 | 0.0 | 0.00 | 0.00 | 0.00 | 968.2 | ||
| 20260503191258 | 34 | 0.0 | 0.0 | 0.00 | 0.00 | 0.00 | 968.1 | ||
| 20260503190254 | 35 | 0.0 | 0.0 | 0.00 | 0.00 | 0.00 | 968.1 | ||
| 20260503185253 | 36 | 0.0 | 0.0 | 0.00 | 0.00 | 0.00 | 968.0 | ||
| 20260503184250 | 36 | 0.0 | 0.0 | 0.00 | 0.00 | 0.00 | 967.9 | ||
| 20260503183247 | 36 | 0.0 | 0.0 | 0.00 | 0.00 | 0.00 | 967.7 | ||
| 20260503182246 | 36 | 0.0 | 0.0 | 0.00 | 0.00 | 0.00 | 967.8 | ||
| 20260503181245 | 36 | 0.0 | 0.0 | 0.00 | 0.00 | 0.00 | 967.8 | ||
| 20260503180239 | 36 | 0.0 | 0.0 | 0.00 | 0.00 | 0.00 | 967.7 | ||
| 20260503175237 | 37 | 0.0 | 0.0 | 0.00 | 0.00 | 0.00 | 967.7 | ||
| 20260503174234 | 36 | 0.0 | 0.0 | 0.00 | 0.00 | 0.00 | 967.7 | ||
| 20260503173233 | 37 | 0.0 | 0.0 | 0.00 | 0.00 | 0.00 | 967.6 | ||
| 20260503172230 | 37 | 0.0 | 0.0 | 0.00 | 0.00 | 0.00 | 967.6 | ||
| 20260503171228 | 37 | 0.0 | 0.0 | 0.00 | 0.00 | 0.00 | 967.5 | ||
| 20260503170224 | 37 | 0.0 | 0.0 | 0.00 | 0.00 | 0.00 | 967.5 | ||
| 20260503160208 | 39 | 0.0 | 0.0 | 0.00 | 0.00 | 0.00 | 967.4 | ||
| 20260503150151 | 41 | 0.0 | 0.0 | 0.00 | 0.00 | 0.00 | 967.4 | ||
| 20260503131114 | 45 | 0.0 | 0.0 | 0.00 | 0.00 | 0.00 | 967.0 | ||
| 20260503130111 | 44 | 0.0 | 0.0 | 0.00 | 0.00 | 0.00 | 967.0 | ||
| 20260503110808 | 43 | 0.0 | 0.0 | 0.00 | 0.00 | 0.00 | 966.4 | ||
| 20260503110653 | 43 | 0.0 | 0.0 | 0.00 | 0.00 | 0.00 | 966.5 | ||
| 20260503110333 | 43 | 0.0 | 0.0 | 0.00 | 0.00 | 0.00 | 966.5 | ||
| 20260503090301 | 42 | 0.0 | 0.0 | 0.00 | 0.00 | 0.00 | 966.2 | ||
| 20260503081245 | 41 | 0.0 | 0.0 | 0.00 | 0.00 | 0.00 | 966.2 | ||
| 20260503080356 | 43 | 0.0 | 0.0 | 0.00 | 0.00 | 0.00 | 966.1 | ||
| 20260503080242 | 43 | 0.0 | 0.0 | 0.00 | 0.00 | 0.00 | 966.1 | ||
| 20260503072644 | 40 | 0.0 | 0.0 | 0.00 | 0.00 | 0.00 | 965.7 | ||
| 20260503071641 | 39 | 0.0 | 0.0 | 0.00 | 0.00 | 0.00 | 965.9 | ||
| 20260503070639 | 40 | 0.0 | 0.0 | 0.00 | 0.00 | 0.00 | 965.6 | ||
| 20260503054613 | 39 | 0.0 | 0.0 | 0.00 | 0.00 | 0.00 | 965.4 | ||
| 20260503053610 | 38 | 0.0 | 0.0 | 0.00 | 0.00 | 0.00 | 965.5 | ||
| 20260503052608 | 38 | 0.0 | 0.0 | 0.00 | 0.00 | 0.00 | 965.4 | ||
| 20260503051720 | 37 | 0.0 | 0.0 | 0.00 | 0.00 | 0.00 | 965.3 |